{"data":{"norad_id":67939,"epoch":"2026-05-25T05:13:08.875776Z","epoch_age_seconds":59302,"freshness":"FRESH","line1":"1 67939U 26037H   26145.21746384  .00017411  00000+0  64056-3 0  9992","line2":"2 67939  43.0007 118.6347 0000775 269.4658  90.6105 15.27589620 15045","mean_motion":15.2758962,"eccentricity":7.75e-5,"inclination_deg":43.0007,"raan_deg":118.6347,"arg_perigee_deg":269.4658,"mean_anomaly_deg":90.6105,"bstar":0.00064056,"rev_number":1504,"period_min":94.266155068532,"perigee_km":482.48855076004,"apogee_km":483.55203014006,"semimajor_km":6861.15729045,"source":"CELESTRAK","updated_at":"2026-05-25T13:38:21.767574Z"}}